Regional Weather Roundup
Issued by NWS

Home | Current Version | Previous Version | Text Only | Print | Product List | Glossary Off
Versions: 1 2 3 4 5 6 7 8 9 10 11 12 13 14 15 16 17 18 19 20 21 22 23 24 25 26 27 28 29 30 31 32 33 34 35 36 37 38 39 40 41 42 43 44 45 46 47 48 49 50

000
ASUS45 KBOU 201507
RWRCO

WEATHER ROUNDUP FOR COLORADO
NATIONAL WEATHER SERVICE DENVER/BOULDER CO
900 AM MDT MON OCT 20 2014

NOTE: "FAIR" INDICATES FEW OR NO CLOUDS BELOW 12000 FEET WITH NO
SIGNIFICANT WEATHER AND/OR OBSTRUCTIONS TO VISIBILITY.

COZ001>005-013-030-031-201600-
...NORTHWEST COLORADO...

CITY           SKY/WX    TMP DP  RH WIND       PRES   REMARKS
CRAIG          SUNNY     39  33  79 CALM      30.24R
HAYDEN         SUNNY     46  30  53 SE7       30.24R
MEEKER         MOSUNNY   43  34  70 CALM      30.24R
MOUNT WERNER   NOT AVBL
STEAMBOAT SPGS SUNNY     39  31  73 CALM      30.26R
WALDEN         SUNNY     34  27  75 CALM      30.31R
$$

COZ006>008-011-201600-
...WEST CENTRAL VALLEYS...

CITY           SKY/WX    TMP DP  RH WIND       PRES   REMARKS
GRAND JUNCTION SUNNY     54  41  61 SE12      30.17R
MONTROSE       SUNNY     50  38  63 CALM      30.24R
EAGLE          MOSUNNY   37  34  87 CALM      30.32R
RIFLE          MOSUNNY   42  36  79 CALM      30.24R
DELTA          SUNNY     52  38  59 CALM      30.22R
NUCLA          MOSUNNY   50  36  57 E6        30.27R
$$

COZ017>023-064>068-201600-
...SOUTHWEST COLORADO...

CITY           SKY/WX    TMP DP  RH WIND       PRES   REMARKS
DURANGO        CLOUDY    41  40  96 CALM      30.27R
CORTEZ         SUNNY     46  41  82 NE5       30.24R
PAGOSA SPRINGS CLOUDY    44  42  93 CALM      30.32R
TELLURIDE      SUNNY     44  34  68 CALM      30.37R
WOLF CREEK PAS PTSUNNY   34  30  86 SW5       30.50R WCI  30
$$

COZ009-010-012-014-032>034-037-058>063-201600-
...CENTRAL COLORADO...

CITY           SKY/WX    TMP DP  RH WIND       PRES   REMARKS
ASPEN          PTSUNNY   45  34  65 CALM      30.30R
BUENA VISTA    MOSUNNY   41  33  74 CALM      30.36R
COPPER MTN     MOSUNNY   45  28  53 S12       30.50R
BERTHOUD PASS  FAIR      34  32  93 MISG      30.54R
COTTONWOOD PAS PTSUNNY   48  32  53 CALM      30.42R
GUNNISON       PTSUNNY   36  28  75 CALM      30.38R
KREMMLING      SUNNY     34  28  80 CALM        N/A
LEADVILLE      MOSUNNY   37  30  75 CALM      30.41R
MONARCH PASS   CLOUDY    36  32  87 SW7       30.61R
SALIDA         CLOUDY    45  35  68 NW7       30.42S
SUNLIGHT       CLOUDY    43  32  65 CALM      30.45R
WILKERSON PASS NOT AVBL
$$

COZ069>075-201600-
...SAN LUIS VALLEY/SANGRE DE CRISTO MOUNTAINS...

CITY           SKY/WX    TMP DP  RH WIND       PRES   REMARKS
ALAMOSA        CLOUDY    46  36  68 N3        30.33R
LA VETA PASS   PTSUNNY   45  30  57 NE3       30.44R
SAGUACHE       CLOUDY    46  36  66 NW14      30.34R
$$

COZ035-036-038>040-201600-
...NORTHERN COLORADO FRONT RANGE...

CITY           SKY/WX    TMP DP  RH WIND       PRES   REMARKS
DENVER INTL AP SUNNY     57  38  48 SW8       30.18R
DMNS CITY PARK   N/A     56  35  46 S6G13     30.18S
AURORA         SUNNY     56  38  51 S10       30.19S
FRONT RANGE AP SUNNY     57  41  54 CALM      30.19R
ERIE MUNI ARPT SUNNY     50  38  62 CALM      30.17R
BOULDER MUN AP SUNNY     52  34  50 CALM      30.17R
CENTENNIAL     SUNNY     55  39  54 SE3       30.20R
BROOMFIELD     SUNNY     54  36  50 CALM      30.19R
FORT COLLINS   SUNNY     48  37  66 CALM      30.18S
LONGMONT       SUNNY     52  40  65 CALM      30.18S
$$

COZ041-046-047-076>085-087-088-201600-
...PIKES PEAK/PALMER DIVIDE AND SOUTHERN FOOTHILLS...

CITY           SKY/WX    TMP DP  RH WIND       PRES   REMARKS
COLO. SPRINGS  MOSUNNY   57  42  57 CALM      30.26R
A. F. ACADEMY  SUNNY     47  37  67 N5        30.27R
ELLICOTT       NOT AVBL
FALCON         SUNNY     54  39  57 SW5       30.29R
FORT CARSON    SUNNY     51  38  60 N3        30.24R
LIMON          SUNNY     52  42  69 CALM      30.22R
MONUMENT HILL  SUNNY     54  37  54 S12       30.26R
TRINIDAD       SUNNY     53  36  52 W13       30.25R
$$

COZ042>045-048>051-090-091-201600-
...NORTHEAST COLORADO...

CITY           SKY/WX    TMP DP  RH WIND       PRES   REMARKS
GREELEY ARPT   SUNNY     45  34  65 CALM      30.18R
AKRON          SUNNY     58  40  51 S9        30.17R
BURLINGTON     SUNNY     53  43  68 W3        30.19R
WRAY           SUNNY     49  40  70 SW3       30.17R
STERLING       SUNNY     48  43  81 SW5       30.16R
HOLYOKE        SUNNY     50  41  71 CALM      30.16S
FORT MORGAN    SUNNY     51  38  62 SW6       30.17S
$$

COZ086-089-092>099-201600-
...SOUTHEAST COLORADO...

CITY           SKY/WX    TMP DP  RH WIND       PRES   REMARKS
PUEBLO         SUNNY     51  39  63 CALM      30.21R
LA JUNTA       SUNNY     53  41  63 W6        30.20R
LAMAR          SUNNY     53  45  74 W8        30.19R
SPRINGFIELD      N/A     59  48  67 N6        30.19S
$$



USA.gov is the U.S. government's official web portal to all federal, state and local government web resources and services.